Location: Ingoldesthorpe
(52.8667°N, 0.5167°E)
Time: 14:32:12
(UTC+00:00)

Cosmos 1975 - Pass Details

Date: 19 May 2025
Orbit: 487 x 506 km, 82.5° (Epoch: 18 June)

Event Time Altitude Azimuth Distance (km) Brightness Sun altitude
Rises 22:44:06 0° 349° (N) 2,578 8.1 -15.6°
Reaches altitude 10° 22:46:13 10° 350° (N) 1,690 6.7 -15.7°
Maximum altitude 22:49:55 87° 81° (E) 496 2.5 -15.8°
Enters shadow 22:51:24 35° 168° (SSE) 812 3.1 -15.9°
